Weather History for Northway, AK

Change the Weather History Date:

Saturday, October 13, 2012

  Actual Average Record
Temperature  
Mean Temperature 24 °F -  
Max Temperature 28 °F 33 °F 55 °F (1969)
Min Temperature 19 °F 14 °F -8 °F (1992)
Degree Days  
Heating Degree Days 42    
Moisture  
Dew Point 16 °F    
Average Humidity 73    
Maximum Humidity 85    
Minimum Humidity 61    
Precipitation  
Precipitation 0.00 in - - ()
Sea Level Pressure  
Sea Level Pressure 29.43 in    
Wind  
Wind Speed 1 mph (SE)    
Max Wind Speed 6 mph    
Max Gust Speed -    
Visibility 10 miles    
Events Snow    
Averages and records for this station are not official NWS values.
T = Trace of Precipitation, MM = Missing Value Source: NWS Daily Summary

Daily Weather History Graph

Daily Weather History Graph

Search for Another Location

Airport:

Trip Planner

Search our weather history database for the weather conditions in past years. The results will help you decide how hot, cold, wet, or windy it might be!

Date:

Astronomy

Oct. 13, 2012 Rise Set
Actual Time 8:10 AM AKDT 6:15 PM AKDT
Civil Twilight 7:24 AM AKDT 7:01 PM AKDT
Nautical Twilight 6:31 AM AKDT 7:54 PM AKDT
Astronomical Twilight 5:37 AM AKDT 8:48 PM AKDT
Moon 5:45 AM AKDT (10/13) 5:18 PM AKDT (10/13)
Length of Visible Light 11h 37m
Length of Day
10h 04m
Waning Crescent, 4% of the Moon is Illuminated
Oct 13
Waning Crescent
Oct 15
New
Oct 21
First Quarter
Oct 29
Full
Nov 6
Last Quarter

Hourly Weather History & Observations

Time (AKDT) Temp. Windchill Dew Point Humidity Pressure Visibility Wind Dir Wind Speed Gust Speed Precip Events Conditions
12:53 AM 23.0 °F - 12.2 °F 63% 29.34 in 10.0 mi Calm Calm - N/A   Overcast
1:53 AM 21.9 °F - 12.9 °F 68% 29.44 in 10.0 mi Calm Calm - N/A   Overcast
2:53 AM 21.0 °F - 15.1 °F 78% 29.44 in 10.0 mi Calm Calm - N/A   Overcast
3:53 AM 21.9 °F - 12.9 °F 68% 29.42 in 10.0 mi Calm Calm - N/A   Overcast
4:53 AM 21.9 °F - 15.1 °F 75% 29.42 in 10.0 mi Calm Calm - N/A   Overcast
5:53 AM 21.2 °F - 14.0 °F 74% 29.32 in 10.0 mi Calm Calm - N/A   Overcast
6:53 AM 21.0 °F - 15.1 °F 78% 29.42 in 10.0 mi Calm Calm - N/A   Overcast
7:53 AM 19.9 °F 14.9 °F 16.0 °F 85% 29.44 in 10.0 mi South 3.5 mph - N/A   Overcast
8:53 AM 19.9 °F 14.9 °F 16.0 °F 85% 29.44 in 9.0 mi SSE 3.5 mph - N/A   Overcast
9:53 AM 21.0 °F 16.2 °F 17.1 °F 85% 29.45 in 10.0 mi ESE 3.5 mph - 0.00 in   Overcast
10:53 AM 23.0 °F 18.4 °F 17.1 °F 78% 29.46 in 10.0 mi East 3.5 mph - N/A   Overcast
11:53 AM 24.1 °F 18.2 °F 16.0 °F 71% 29.47 in 10.0 mi East 4.6 mph - N/A   Overcast
12:53 PM 26.1 °F 20.5 °F 15.1 °F 63% 29.46 in 10.0 mi ESE 4.6 mph - N/A   Mostly Cloudy
1:53 PM 26.1 °F 19.4 °F 16.0 °F 66% 29.46 in 9.0 mi SE 5.8 mph - 0.00 in Snow Light Snow
2:53 PM 27.0 °F 20.5 °F 15.1 °F 61% 29.46 in 10.0 mi SE 5.8 mph - 0.00 in   Mostly Cloudy
3:53 PM 27.0 °F 20.5 °F 15.1 °F 61% 29.45 in 10.0 mi SSE 5.8 mph - N/A   Overcast
4:53 PM 28.0 °F 22.8 °F 16.0 °F 61% 29.46 in 10.0 mi South 4.6 mph - N/A   Overcast
5:53 PM 26.1 °F 21.9 °F 16.0 °F 66% 29.46 in 10.0 mi South 3.5 mph - N/A   Overcast
6:53 PM 25.0 °F - 16.0 °F 69% 29.46 in 10.0 mi Calm Calm - N/A   Overcast
7:53 PM 25.0 °F - 17.1 °F 72% 29.45 in 10.0 mi Calm Calm - N/A   Mostly Cloudy
8:53 PM 24.8 °F - 17.6 °F 74% 29.35 in 10.0 mi Calm Calm - N/A   Mostly Cloudy
9:53 PM 24.1 °F - 18.0 °F 77% 29.45 in 10.0 mi Calm Calm - N/A   Mostly Cloudy
10:53 PM 23.0 °F - 17.1 °F 78% 29.44 in 10.0 mi Calm Calm - N/A   Overcast
11:22 PM 23.0 °F - 17.6 °F 80% 29.34 in 10.0 mi Calm Calm - N/A   Scattered Clouds
11:53 PM 19.9 °F - 16.0 °F 85% 29.44 in 10.0 mi Calm Calm - N/A   Scattered Clouds